C/2017 K6 ( Jacques )

Japanese version
Home page
Updated on June 2, 2017

---------------------------------------------------------------------

* Profile

Discovery Date May 29, 2017
Magnitude 17.5 mag
Discoverer Cristovao Jacques (SONEAR Observatory at Oliveira)

* Orbital Elements

T 2018 Jan. 1.73428 TT                                  MPCW
q   2.1091734            (2000.0)            P               Q
                   Peri.  300.27771     +0.50428378     -0.20047911
                   Node    85.34685     +0.71594810     +0.64090818
e   1.0            Incl.   57.42864     -0.48282108     +0.74097559
From 50 observations 2017 May 29-June 1.

* Finding Charts

* Magnitudes Graph

        m1 = 10.0 + 5 log d + 10.0 log r

---------------------------------------------------------------------

The orbital elements are published on M.P.E.C. 2017-L06.
The charts are made with StellaNavigator Ver.10 (AstroArts).
The magnitudes graphs are made with Comet for Windows.

---------------------------------------------------------------------

Copyright(C) Seiichi Yoshida (comet@aerith.net). All rights reserved.